DW6029 Sullivans Island SC US current weather conditions

sailwx.info

Wind from 117 at 0 knots

Air temperature 16.7° C
Dewpoint 14.7° C

Last reported at 2019-Dec-09 22:01 UTC.
Time now 2019-Dec-09 23:05 UTC

Location: N 32°46' W 080°01'.
View on Google Maps.

See reports from other nearby stations

  
Tides and Currents Weather Stations Pressure Air Temp Water Temp Dewpoint Dewpoint Depression Visibility Wind Speed Wind Dir Waves Ship Positions
date/time (UTC)wind fromknots sea level pressurealtimeterstation pressurevisibilityair tempwater tempwave heightnotes
2019-Dec-09 22:01 117 0 16.7
2019-Dec-09 21:46 111 0 16.7
2019-Dec-09 21:33 121 0 16.7
2019-Dec-09 21:16 138 1 16.7
2019-Dec-09 21:01 140 0 16.7
2019-Dec-09 20:46 126 0 16.1
2019-Dec-09 20:31 148 1 15.6
2019-Dec-09 20:15 170 1 15.0
2019-Dec-09 20:01 087 1 15.0
2019-Dec-09 19:45 174 1 15.6
2019-Dec-09 19:30 154 1 15.6
2019-Dec-09 19:16 121 1 16.1
2019-Dec-09 19:00 157 1 17.2
2019-Dec-09 18:45 145 2 17.2
2019-Dec-09 18:30 150 1 17.2
2019-Dec-09 18:15 165 2 16.1
2019-Dec-09 18:01 199 3 16.1
2019-Dec-09 17:46 151 3 16.1
2019-Dec-09 17:30 155 1 16.1
2019-Dec-09 17:15 171 1 16.7
2019-Dec-09 17:00 263 0 16.1
2019-Dec-09 16:45 171 0 15.6
2019-Dec-09 16:30 334 0 15.6
2019-Dec-09 16:15 319 0 15.0
2019-Dec-09 16:00 329 0 14.4
2019-Dec-09 15:45 333 0 14.4
2019-Dec-09 15:30 333 0 13.9
2019-Dec-09 15:16 332 0 13.3
2019-Dec-09 15:02 335 0 13.3
2019-Dec-09 14:47 339 0 13.3
2019-Dec-09 14:31 332 0 12.8
2019-Dec-09 14:16 331 0 12.8
2019-Dec-09 14:03 292 0 12.8
2019-Dec-09 13:46 284 12.8
2019-Dec-09 13:31 227 12.2
2019-Dec-09 13:16 273 12.2
2019-Dec-09 13:00 261 11.7
2019-Dec-09 12:46 322 0 11.7
2019-Dec-09 12:32 184 11.7
2019-Dec-09 12:16 173 11.7
2019-Dec-09 12:01 338 0 11.7
2019-Dec-09 11:46 339 0 11.7
2019-Dec-09 11:31 337 0 11.7
2019-Dec-09 11:17 337 0 11.7
2019-Dec-09 11:00 267 0 11.7
2019-Dec-09 10:47 181 11.1
2019-Dec-09 10:31 159 0 11.1
2019-Dec-09 10:16 147 11.1
2019-Dec-09 10:01 304 0 11.7
2019-Dec-09 09:45 135 0 11.1
2019-Dec-09 09:31 167 0 11.1
2019-Dec-09 09:15 172 0 11.1
2019-Dec-09 09:01 225 0 11.1
2019-Dec-09 08:46 244 11.1
2019-Dec-09 08:31 340 0 11.1
2019-Dec-09 08:16 340 0 11.1
2019-Dec-09 08:00 333 0 11.1
2019-Dec-09 07:45 325 0 11.1
2019-Dec-09 07:30 345 11.1
2019-Dec-09 07:15 188 11.1
2019-Dec-09 07:00 348 11.1
2019-Dec-09 06:45 348 11.1
2019-Dec-09 06:30 348 11.1
2019-Dec-09 06:15 348 0 11.1
2019-Dec-09 06:00 360 0 11.1
2019-Dec-09 05:46 196 11.1
2019-Dec-09 05:30 319 11.1
2019-Dec-09 05:16 089 0 11.1
2019-Dec-09 05:00 332 0 11.1
2019-Dec-09 04:45 331 0 11.1
2019-Dec-09 04:30 329 0 11.1
2019-Dec-09 04:15 340 0 11.7
2019-Dec-09 04:00 046 11.7
2019-Dec-09 03:45 056 11.7
2019-Dec-09 03:30 056 11.7
2019-Dec-09 03:15 351 11.7
2019-Dec-09 03:00 342 0 11.7
2019-Dec-09 02:45 355 12.2
2019-Dec-09 02:30 027 12.2
2019-Dec-09 02:15 027 0 12.2
2019-Dec-09 02:01 355 0 12.2
2019-Dec-09 01:45 340 0 12.2
2019-Dec-09 01:30 355 12.2
2019-Dec-09 01:15 355 12.8
2019-Dec-09 01:00 360 12.8
2019-Dec-09 00:45 012 12.8
2019-Dec-09 00:30 012 12.8
2019-Dec-09 00:15 012 13.3
2019-Dec-09 00:01 012 13.3
2019-Dec-08 23:45 012 13.9
2019-Dec-08 23:30 331 0 13.9
2019-Dec-08 23:15 011 0 13.9
2019-Dec-08 23:00 035 0 14.4
2019-Dec-08 22:45 158 0 13.9
2019-Dec-08 22:30 163 13.9
2019-Dec-08 22:15 163 14.4
2019-Dec-08 22:00 199 14.4
2019-Dec-08 21:45 200 15.0
2019-Dec-08 21:30 200 15.6
2019-Dec-08 21:15 009 0 15.6
2019-Dec-08 21:00 331 0 16.1
2019-Dec-08 20:45 355 0 16.1
2019-Dec-08 20:30 321 0 16.1
2019-Dec-08 20:15 040 0 16.1
2019-Dec-08 20:00 323 1 16.1
2019-Dec-08 19:45 322 1 16.1
2019-Dec-08 19:30 328 1 16.1
2019-Dec-08 19:15 296 1 16.1
2019-Dec-08 19:00 360 1 16.7
2019-Dec-08 18:45 294 1 16.7
2019-Dec-08 18:30 315 1 16.7
2019-Dec-08 18:15 285 1 16.1
2019-Dec-08 18:00 304 1 15.6
2019-Dec-08 17:45 311 1 16.1
2019-Dec-08 17:32 360 1 15.6
2019-Dec-08 17:17 291 1 15.0
2019-Dec-08 17:01 346 0 14.4
2019-Dec-08 16:46 304 0 14.4
2019-Dec-08 16:31 296 1 13.3
2019-Dec-08 16:16 295 0 12.8
2019-Dec-08 16:01 333 1 12.2
2019-Dec-08 15:46 355 1 12.2
2019-Dec-08 15:31 325 1 11.1
2019-Dec-08 15:15 315 0 11.1
2019-Dec-08 15:00 302 1 10.6
2019-Dec-08 14:46 337 1 9.4
2019-Dec-08 14:30 355 1 8.9
2019-Dec-08 14:15 318 1 8.3
2019-Dec-08 14:00 360 1 7.8
2019-Dec-08 13:45 360 1 7.2
2019-Dec-08 13:30 355 1 6.7
2019-Dec-08 13:15 347 0 6.1
2019-Dec-08 13:00 331 0 6.1
2019-Dec-08 12:45 333 1 5.6
2019-Dec-08 12:30 326 0 5.6
2019-Dec-08 12:19 355 1 6.1
2019-Dec-08 12:01 319 1 6.1
2019-Dec-08 11:47 348 1 6.7
2019-Dec-08 11:31 017 1 6.7
2019-Dec-08 11:17 360 2 6.7
2019-Dec-08 11:02 338 2 7.2
2019-Dec-08 10:46 005 1 7.2
2019-Dec-08 10:31 317 1 7.2
2019-Dec-08 10:16 005 2 7.8
2019-Dec-08 10:03 318 1 7.8
2019-Dec-08 09:47 349 1 7.8
2019-Dec-08 09:31 329 1 8.3
2019-Dec-08 09:15 336 1 8.3
2019-Dec-08 09:01 346 1 8.3
2019-Dec-08 08:46 351 1 8.3
2019-Dec-08 08:32 355 1 8.3
2019-Dec-08 08:16 340 1 8.3
2019-Dec-08 08:01 342 1 8.3
2019-Dec-08 07:47 355 1 8.3
2019-Dec-08 07:31 346 1 8.3
2019-Dec-08 07:16 355 2 8.9
2019-Dec-08 07:01 344 1 8.9
2019-Dec-08 06:46 338 1 8.9
2019-Dec-08 06:31 341 1 8.9
2019-Dec-08 06:17 355 1 8.9
2019-Dec-08 06:00 330 1 8.9
2019-Dec-08 05:46 323 1 8.9
2019-Dec-08 05:30 349 1 9.4
2019-Dec-08 05:16 347 1 9.4
2019-Dec-08 05:00 351 1 9.4
2019-Dec-08 04:46 322 1 10.0
2019-Dec-08 04:30 339 1 10.0
2019-Dec-08 04:15 342 1 10.0
2019-Dec-08 04:01 005 1 10.6
2019-Dec-08 03:45 340 1 10.6
2019-Dec-08 03:30 336 0 10.6
2019-Dec-08 03:15 338 0 10.6
2019-Dec-08 03:00 340 0 10.6
2019-Dec-08 02:45 340 0 10.6
2019-Dec-08 02:30 340 0 10.6
2019-Dec-08 02:16 351 0 10.6
2019-Dec-08 02:01 351 0 11.1
2019-Dec-08 01:45 351 0 11.1
2019-Dec-08 01:31 351 11.1
2019-Dec-08 01:16 351 11.7
2019-Dec-08 01:01 351 0 11.7
2019-Dec-08 00:45 351 11.7
2019-Dec-08 00:30 351 11.7
2019-Dec-08 00:15 355 12.2
2019-Dec-08 00:00 355 0 12.2
2019-Dec-07 23:45 327 0 12.2
2019-Dec-07 23:30 327 0 12.2
2019-Dec-07 23:15 329 0 12.8
2019-Dec-07 23:00 338 0 12.8